Location: 22
(39.7117°N, 89.5929°W)
Time: 07:43:35
(UTC-06:00)

S-56A Canister/Altair - Visible Passes

Search period start: 28 November 2023 00:00
Search period end: 08 December 2023 00:00
Orbit: 640 x 2489 km, 38.9° (Epoch: 27 November)

Date Brightness Start Highest point End Pass type
(mag) Time Alt. Az. Time Alt. Az. Time Alt. Az.
28 Nov 8.5 17:15:01 10° W 17:20:51 70° SSW 17:29:40 10° ESE visible
28 Nov 9.8 19:18:32 10° W 19:25:12 36° SSW 19:30:49 21° SSE visible
28 Nov 11.2 21:26:08 10° WSW 21:28:18 12° SW 21:28:18 12° SW visible
29 Nov 9.7 18:45:33 10° W 18:51:51 38° SSW 19:00:38 11° SE visible
29 Nov 11.0 20:52:07 10° WSW 20:56:19 14° SW 20:58:09 13° SSW visible
30 Nov 9.5 18:12:36 10° W 18:18:32 41° SSW 18:27:10 10° SE visible
30 Nov 10.9 20:18:24 10° WSW 20:22:54 15° SW 20:28:17 10° S visible
01 Dec 9.3 17:39:42 10° W 17:45:19 43° SSW 17:53:26 10° SE visible
01 Dec 10.8 19:44:56 10° WSW 19:49:32 17° SW 19:55:12 10° S visible
02 Dec 9.1 17:06:49 10° W 17:12:07 46° SSW 17:19:44 10° SE visible
02 Dec 10.7 19:11:35 10° WSW 19:16:13 18° SSW 19:22:00 10° S visible
03 Dec 10.6 18:38:21 10° WSW 18:42:56 19° SSW 18:48:44 10° S visible
04 Dec 10.4 18:05:13 10° WSW 18:09:42 21° SSW 18:15:26 10° SSE visible
05 Dec 10.3 17:32:08 10° WSW 17:36:31 22° SSW 17:42:08 10° SSE visible
06 Dec 10.2 16:59:06 10° W 17:03:21 24° SSW 17:08:49 10° SSE visible
